Time,TemperatureF,DewpointF,PressureIn,WindDirection,WindDirectionDegrees,WindSpeedMPH,WindSpeedGustMPH,Humidity,HourlyPrecipIn,Conditions,Clouds,dailyrainin,SoftwareType,DateUTC
2013-06-19 00:01:00,57.7,47.3,30.10,East,81,1.0,4.0,68,0.00,,,0.00,meteohub,2013-06-19 04:01:00,
2013-06-19 00:02:00,57.7,47.3,30.10,East,82,3.0,4.0,68,0.00,,,0.00,meteohub,2013-06-19 04:02:00,
2013-06-19 00:04:00,57.7,47.7,30.09,ENE,77,2.0,4.0,69,0.00,,,0.00,meteohub,2013-06-19 04:04:00,
2013-06-19 00:07:00,57.7,47.3,30.09,East,84,2.0,4.0,68,0.00,,,0.00,meteohub,2013-06-19 04:07:00,
2013-06-19 00:12:00,57.7,47.7,30.10,ENE,77,3.0,4.0,69,0.00,,,0.00,meteohub,2013-06-19 04:12:00,
2013-06-19 00:17:00,57.6,47.8,30.10,East,81,4.0,4.0,70,0.00,,,0.00,meteohub,2013-06-19 04:17:00,
2013-06-19 00:22:00,57.6,47.8,30.10,East,86,3.0,6.0,70,0.00,,,0.00,meteohub,2013-06-19 04:22:00,
2013-06-19 00:27:00,57.6,47.8,30.10,ENE,68,4.0,6.0,70,0.00,,,0.00,meteohub,2013-06-19 04:27:00,
2013-06-19 00:32:00,57.6,47.8,30.10,East,93,4.0,6.0,70,0.00,,,0.00,meteohub,2013-06-19 04:32:00,
2013-06-19 00:37:00,57.6,47.8,30.10,East,89,4.0,6.0,70,0.00,,,0.00,meteohub,2013-06-19 04:37:00,
2013-06-19 00:42:00,57.4,47.7,30.10,East,88,4.0,6.0,70,0.00,,,0.00,meteohub,2013-06-19 04:42:00,
2013-06-19 00:47:00,57.4,47.7,30.10,ESE,105,6.0,6.0,70,0.00,,,0.00,meteohub,2013-06-19 04:47:00,
2013-06-19 00:52:00,57.4,47.3,30.10,ENE,65,6.0,9.0,69,0.00,,,0.00,meteohub,2013-06-19 04:52:00,
2013-06-19 00:57:00,57.4,47.3,30.10,ENE,78,6.0,9.0,69,0.00,,,0.00,meteohub,2013-06-19 04:57:00,
2013-06-19 01:02:00,57.2,47.1,30.10,ENE,68,4.0,9.0,69,0.00,,,0.00,meteohub,2013-06-19 05:02:00,
2013-06-19 01:08:00,57.0,46.9,30.10,East,84,6.0,9.0,69,0.00,,,0.00,meteohub,2013-06-19 05:08:00,
2013-06-19 01:13:00,57.0,46.9,30.10,East,85,7.0,9.0,69,0.00,,,0.00,meteohub,2013-06-19 05:13:00,
2013-06-19 01:18:00,57.0,46.9,30.11,ENE,65,4.0,11.0,69,0.00,,,0.00,meteohub,2013-06-19 05:18:00,
2013-06-19 01:23:00,56.8,46.8,30.11,East,79,4.0,11.0,69,0.00,,,0.00,meteohub,2013-06-19 05:23:00,
2013-06-19 01:28:00,56.7,46.6,30.11,East,94,3.0,11.0,69,0.00,,,0.00,meteohub,2013-06-19 05:28:00,
2013-06-19 01:33:00,56.7,46.6,30.11,East,91,6.0,9.0,69,0.00,,,0.00,meteohub,2013-06-19 05:33:00,
2013-06-19 01:39:00,56.5,46.4,30.11,East,86,6.0,8.0,69,0.00,,,0.00,meteohub,2013-06-19 05:39:00,
2013-06-19 01:44:00,56.3,46.6,30.11,ENE,77,6.0,8.0,70,0.00,,,0.00,meteohub,2013-06-19 05:44:00,
2013-06-19 01:49:00,56.1,46.4,30.11,East,91,5.0,8.0,70,0.00,,,0.00,meteohub,2013-06-19 05:49:00,
2013-06-19 01:55:00,56.1,46.4,30.11,ENE,77,3.0,8.0,70,0.00,,,0.00,meteohub,2013-06-19 05:55:00,
2013-06-19 02:00:00,55.9,46.2,30.11,East,82,3.0,8.0,70,0.00,,,0.00,meteohub,2013-06-19 06:00:00,
2013-06-19 02:06:00,55.8,46.0,30.11,East,84,4.0,7.0,70,0.00,,,0.00,meteohub,2013-06-19 06:06:00,
2013-06-19 02:12:00,55.8,46.0,30.11,East,89,5.0,6.0,70,0.00,,,0.00,meteohub,2013-06-19 06:12:00,
2013-06-19 02:17:00,55.6,46.0,30.11,East,79,8.0,8.0,70,0.00,,,0.00,meteohub,2013-06-19 06:17:00,
2013-06-19 02:22:00,55.6,46.0,30.12,East,92,5.0,8.0,70,0.00,,,0.00,meteohub,2013-06-19 06:22:00,
2013-06-19 02:32:00,55.6,45.1,30.12,East,94,5.0,8.0,68,0.00,,,0.00,meteohub,2013-06-19 06:32:00,
2013-06-19 02:37:00,55.6,45.1,30.12,East,82,5.0,9.0,68,0.00,,,0.00,meteohub,2013-06-19 06:37:00,
2013-06-19 02:42:00,55.4,45.0,30.12,ENE,74,6.0,9.0,68,0.00,,,0.00,meteohub,2013-06-19 06:42:00,
2013-06-19 02:47:00,55.2,44.8,30.12,East,82,5.0,8.0,68,0.00,,,0.00,meteohub,2013-06-19 06:47:00,
2013-06-19 02:52:00,55.2,44.4,30.12,ENE,74,6.0,8.0,67,0.00,,,0.00,meteohub,2013-06-19 06:52:00,
2013-06-19 03:02:00,55.2,44.1,30.12,East,92,6.0,9.0,66,0.00,,,0.00,meteohub,2013-06-19 07:02:00,
2013-06-19 03:07:00,55.2,44.1,30.12,ENE,74,5.0,10.0,66,0.00,,,0.00,meteohub,2013-06-19 07:07:00,
2013-06-19 03:12:00,55.2,44.1,30.12,ENE,57,7.0,10.0,66,0.00,,,0.00,meteohub,2013-06-19 07:12:00,
2013-06-19 03:17:00,55.2,43.7,30.12,ENE,77,4.0,11.0,65,0.00,,,0.00,meteohub,2013-06-19 07:17:00,
2013-06-19 03:26:00,55.2,43.7,30.12,ENE,65,8.0,11.0,65,0.00,,,0.00,meteohub,2013-06-19 07:26:00,
2013-06-19 03:31:00,55.0,43.5,30.13,East,82,5.0,11.0,65,0.00,,,0.00,meteohub,2013-06-19 07:31:00,
2013-06-19 03:36:00,55.0,43.9,30.12,East,79,3.0,9.0,66,0.00,,,0.00,meteohub,2013-06-19 07:36:00,
2013-06-19 03:41:00,54.7,43.5,30.13,NE,46,3.0,9.0,66,0.00,,,0.00,meteohub,2013-06-19 07:41:00,
2013-06-19 03:47:00,54.7,43.9,30.13,East,92,2.0,9.0,67,0.00,,,0.00,meteohub,2013-06-19 07:47:00,
2013-06-19 03:52:00,54.3,43.5,30.13,East,101,7.0,8.0,67,0.00,,,0.00,meteohub,2013-06-19 07:52:00,
2013-06-19 03:57:00,54.3,44.1,30.13,ENE,77,2.0,9.0,68,0.00,,,0.00,meteohub,2013-06-19 07:57:00,
2013-06-19 04:02:00,54.1,43.9,30.14,East,94,1.0,9.0,68,0.00,,,0.00,meteohub,2013-06-19 08:02:00,
2013-06-19 04:07:00,54.0,44.1,30.14,ENE,77,3.0,9.0,69,0.00,,,0.00,meteohub,2013-06-19 08:07:00,
2013-06-19 04:12:00,53.8,44.2,30.14,East,101,2.0,7.0,70,0.00,,,0.00,meteohub,2013-06-19 08:12:00,
2013-06-19 04:17:00,53.6,44.1,30.14,East,84,2.0,5.0,70,0.00,,,0.00,meteohub,2013-06-19 08:17:00,
2013-06-19 04:22:00,53.4,43.9,30.14,East,82,2.0,5.0,70,0.00,,,0.00,meteohub,2013-06-19 08:22:00,
2013-06-19 04:27:00,53.2,44.1,30.14,ENE,57,3.0,5.0,71,0.00,,,0.00,meteohub,2013-06-19 08:27:00,
2013-06-19 04:32:00,53.1,43.9,30.14,East,99,1.0,5.0,71,0.00,,,0.00,meteohub,2013-06-19 08:32:00,
2013-06-19 04:37:00,52.9,43.7,30.14,ESE,122,2.0,5.0,71,0.00,,,0.00,meteohub,2013-06-19 08:37:00,
2013-06-19 04:42:00,52.5,43.7,30.14,ESE,102,1.0,5.0,72,0.00,,,0.00,meteohub,2013-06-19 08:42:00,
2013-06-19 04:47:00,52.0,43.9,30.14,ESE,105,1.0,3.0,74,0.00,,,0.00,meteohub,2013-06-19 08:47:00,
2013-06-19 04:52:00,51.6,43.9,30.14,East,92,0.0,2.0,75,0.00,,,0.00,meteohub,2013-06-19 08:52:00,
2013-06-19 04:57:00,51.4,44.1,30.15,East,92,0.0,2.0,76,0.00,,,0.00,meteohub,2013-06-19 08:57:00,
2013-06-19 05:02:00,50.9,43.9,30.15,East,92,0.0,2.0,77,0.00,,,0.00,meteohub,2013-06-19 09:02:00,
2013-06-19 05:07:00,50.4,44.1,30.15,East,92,0.0,1.0,79,0.00,,,0.00,meteohub,2013-06-19 09:07:00,
2013-06-19 05:12:00,49.8,43.9,30.15,East,92,0.0,1.0,80,0.00,,,0.00,meteohub,2013-06-19 09:12:00,
2013-06-19 05:17:00,49.6,43.7,30.15,East,92,0.0,1.0,80,0.00,,,0.00,meteohub,2013-06-19 09:17:00,
2013-06-19 05:22:00,49.5,43.9,30.16,East,92,0.0,1.0,81,0.00,,,0.00,meteohub,2013-06-19 09:22:00,
2013-06-19 05:27:00,49.5,43.9,30.16,ESE,105,1.0,2.0,81,0.00,,,0.00,meteohub,2013-06-19 09:27:00,
2013-06-19 05:32:00,49.5,44.2,30.16,ESE,104,1.0,2.0,82,0.00,,,0.00,meteohub,2013-06-19 09:32:00,
2013-06-19 05:37:00,49.3,44.1,30.17,ESE,105,1.0,2.0,82,0.00,,,0.00,meteohub,2013-06-19 09:37:00,
2013-06-19 05:42:00,49.3,44.1,30.17,ESE,105,0.0,1.0,82,0.00,,,0.00,meteohub,2013-06-19 09:42:00,
2013-06-19 05:47:00,48.9,44.1,30.16,ESE,104,0.0,1.0,83,0.00,,,0.00,meteohub,2013-06-19 09:47:00,
2013-06-19 05:52:00,48.6,43.9,30.17,ESE,105,0.0,1.0,84,0.00,,,0.00,meteohub,2013-06-19 09:52:00,
2013-06-19 05:57:00,48.4,43.7,30.17,SE,125,1.0,1.0,84,0.00,,,0.00,meteohub,2013-06-19 09:57:00,
2013-06-19 06:02:00,48.6,43.9,30.17,ESE,113,1.0,1.0,84,0.00,,,0.00,meteohub,2013-06-19 10:02:00,
2013-06-19 06:07:00,48.7,43.9,30.17,East,92,1.0,2.0,83,0.00,,,0.00,meteohub,2013-06-19 10:07:00,
2013-06-19 06:12:00,48.7,43.9,30.17,East,101,2.0,2.0,83,0.00,,,0.00,meteohub,2013-06-19 10:12:00,
2013-06-19 06:17:00,48.9,44.1,30.17,ESE,105,1.0,2.0,83,0.00,,,0.00,meteohub,2013-06-19 10:17:00,
2013-06-19 06:22:00,48.9,43.7,30.17,East,84,1.0,2.0,82,0.00,,,0.00,meteohub,2013-06-19 10:22:00,
2013-06-19 06:27:00,49.3,44.1,30.17,East,97,1.0,2.0,82,0.00,,,0.00,meteohub,2013-06-19 10:27:00,
2013-06-19 06:32:00,49.8,44.2,30.17,East,86,2.0,2.0,81,0.00,,,0.00,meteohub,2013-06-19 10:32:00,
2013-06-19 06:37:00,50.2,44.2,30.17,East,97,2.0,2.0,80,0.00,,,0.00,meteohub,2013-06-19 10:37:00,
2013-06-19 06:42:00,50.5,44.6,30.17,East,85,1.0,3.0,80,0.00,,,0.00,meteohub,2013-06-19 10:42:00,
2013-06-19 06:47:00,50.9,44.2,30.18,East,92,2.0,3.0,78,0.00,,,0.00,meteohub,2013-06-19 10:47:00,
2013-06-19 06:52:00,51.6,44.2,30.18,East,84,1.0,4.0,76,0.00,,,0.00,meteohub,2013-06-19 10:52:00,
2013-06-19 06:57:00,52.2,44.4,30.18,East,89,1.0,4.0,75,0.00,,,0.00,meteohub,2013-06-19 10:57:00,
2013-06-19 07:02:00,52.5,44.4,30.18,ENE,74,2.0,4.0,74,0.00,,,0.00,meteohub,2013-06-19 11:02:00,
2013-06-19 07:07:00,52.9,44.4,30.18,East,84,1.0,3.0,73,0.00,,,0.00,meteohub,2013-06-19 11:07:00,
2013-06-19 07:12:00,53.4,45.0,30.18,East,99,1.0,2.0,73,0.00,,,0.00,meteohub,2013-06-19 11:12:00,
2013-06-19 07:17:00,53.6,44.1,30.18,ENE,77,3.0,6.0,70,0.00,,,0.00,meteohub,2013-06-19 11:17:00,
2013-06-19 07:22:00,54.0,44.1,30.18,East,88,4.0,6.0,69,0.00,,,0.00,meteohub,2013-06-19 11:22:00,
2013-06-19 07:27:00,54.3,43.2,30.18,East,88,4.0,6.0,66,0.00,,,0.00,meteohub,2013-06-19 11:27:00,
2013-06-19 07:32:00,54.9,44.1,30.18,East,84,5.0,7.0,67,0.00,,,0.00,meteohub,2013-06-19 11:32:00,
2013-06-19 07:37:00,55.2,43.7,30.18,ENE,74,5.0,7.0,65,0.00,,,0.00,meteohub,2013-06-19 11:37:00,
2013-06-19 07:42:00,55.6,44.1,30.18,ESE,115,4.0,7.0,65,0.00,,,0.00,meteohub,2013-06-19 11:42:00,
2013-06-19 07:47:00,55.8,43.0,30.18,ENE,68,3.0,8.0,62,0.00,,,0.00,meteohub,2013-06-19 11:47:00,
2013-06-19 07:52:00,56.1,42.8,30.18,East,90,5.0,8.0,61,0.00,,,0.00,meteohub,2013-06-19 11:52:00,
2013-06-19 07:57:00,56.5,43.2,30.19,East,94,5.0,10.0,61,0.00,,,0.00,meteohub,2013-06-19 11:57:00,
2013-06-19 08:02:00,56.7,43.0,30.18,East,85,4.0,10.0,60,0.00,,,0.00,meteohub,2013-06-19 12:02:00,
2013-06-19 08:07:00,56.8,43.5,30.18,ESE,102,7.0,10.0,61,0.00,,,0.00,meteohub,2013-06-19 12:07:00,
2013-06-19 08:12:00,56.8,43.9,30.19,East,79,9.0,10.0,62,0.00,,,0.00,meteohub,2013-06-19 12:12:00,
2013-06-19 08:17:00,57.0,43.3,30.19,East,82,5.0,10.0,60,0.00,,,0.00,meteohub,2013-06-19 12:17:00,
2013-06-19 08:22:00,57.0,43.7,30.19,ESE,109,5.0,11.0,61,0.00,,,0.00,meteohub,2013-06-19 12:22:00,
2013-06-19 08:27:00,57.4,43.7,30.19,East,101,8.0,11.0,60,0.00,,,0.00,meteohub,2013-06-19 12:27:00,
2013-06-19 08:32:00,57.6,44.2,30.19,East,98,6.0,11.0,61,0.00,,,0.00,meteohub,2013-06-19 12:32:00,
2013-06-19 08:37:00,57.9,44.6,30.19,SE,133,7.0,11.0,61,0.00,,,0.00,meteohub,2013-06-19 12:37:00,
2013-06-19 08:42:00,58.5,45.1,30.19,ESE,108,9.0,11.0,61,0.00,,,0.00,meteohub,2013-06-19 12:42:00,
2013-06-19 08:47:00,58.8,46.6,30.19,SSE,149,3.0,12.0,64,0.00,,,0.00,meteohub,2013-06-19 12:47:00,
2013-06-19 08:52:00,59.4,45.5,30.19,ENE,63,5.0,12.0,60,0.00,,,0.00,meteohub,2013-06-19 12:52:00,
2013-06-19 08:58:00,59.4,45.5,30.19,ENE,63,3.0,12.0,60,0.00,,,0.00,meteohub,2013-06-19 12:58:00,
2013-06-19 09:03:00,59.5,45.7,30.20,ESE,110,6.0,9.0,60,0.00,,,0.00,meteohub,2013-06-19 13:03:00,
2013-06-19 09:08:00,59.5,45.1,30.20,ESE,113,4.0,10.0,59,0.00,,,0.00,meteohub,2013-06-19 13:08:00,
2013-06-19 09:13:00,59.7,45.3,30.20,ESE,119,5.0,10.0,59,0.00,,,0.00,meteohub,2013-06-19 13:13:00,
2013-06-19 09:18:00,59.9,45.5,30.20,East,96,5.0,10.0,59,0.00,,,0.00,meteohub,2013-06-19 13:18:00,
2013-06-19 09:23:00,60.1,45.7,30.20,SE,131,2.0,10.0,59,0.00,,,0.00,meteohub,2013-06-19 13:23:00,
2013-06-19 09:29:00,60.8,46.8,30.19,ESE,102,10.0,10.0,60,0.00,,,0.00,meteohub,2013-06-19 13:29:00,
2013-06-19 09:34:00,60.8,45.9,30.19,ESE,121,10.0,11.0,58,0.00,,,0.00,meteohub,2013-06-19 13:34:00,
2013-06-19 09:39:00,60.6,45.3,30.19,East,93,6.0,12.0,57,0.00,,,0.00,meteohub,2013-06-19 13:39:00,
2013-06-19 09:44:00,60.6,46.2,30.19,ENE,74,7.0,12.0,59,0.00,,,0.00,meteohub,2013-06-19 13:44:00,
2013-06-19 09:49:00,60.6,46.2,30.20,NE,53,5.0,12.0,59,0.00,,,0.00,meteohub,2013-06-19 13:49:00,
2013-06-19 09:54:00,61.0,46.6,30.20,East,90,4.0,11.0,59,0.00,,,0.00,meteohub,2013-06-19 13:54:00,
2013-06-19 10:00:00,61.3,47.3,30.20,East,94,6.0,9.0,60,0.00,,,0.00,meteohub,2013-06-19 14:00:00,
2013-06-19 10:05:00,61.9,47.5,30.20,SE,129,7.0,9.0,59,0.00,,,0.00,meteohub,2013-06-19 14:05:00,
2013-06-19 10:10:00,61.9,46.9,30.19,East,101,6.0,8.0,58,0.00,,,0.00,meteohub,2013-06-19 14:10:00,
2013-06-19 10:15:00,62.1,47.5,30.20,East,94,2.0,9.0,59,0.00,,,0.00,meteohub,2013-06-19 14:15:00,
2013-06-19 10:20:00,62.6,48.0,30.19,East,96,2.0,9.0,59,0.00,,,0.00,meteohub,2013-06-19 14:20:00,
2013-06-19 10:25:00,62.6,47.1,30.19,East,99,1.0,9.0,57,0.00,,,0.00,meteohub,2013-06-19 14:25:00,
2013-06-19 10:31:00,63.0,47.5,30.19,ESE,108,5.0,8.0,57,0.00,,,0.00,meteohub,2013-06-19 14:31:00,
2013-06-19 10:36:00,63.0,46.9,30.19,SSE,155,5.0,9.0,56,0.00,,,0.00,meteohub,2013-06-19 14:36:00,
2013-06-19 10:41:00,63.3,47.3,30.19,East,79,6.0,9.0,56,0.00,,,0.00,meteohub,2013-06-19 14:41:00,
2013-06-19 10:46:00,63.3,48.4,30.19,East,79,6.0,9.0,58,0.00,,,0.00,meteohub,2013-06-19 14:46:00,
2013-06-19 10:51:00,63.7,48.6,30.19,ESE,102,7.0,9.0,58,0.00,,,0.00,meteohub,2013-06-19 14:51:00,
2013-06-19 10:56:00,63.7,46.8,30.19,ENE,65,5.0,10.0,54,0.00,,,0.00,meteohub,2013-06-19 14:56:00,
2013-06-19 11:02:00,63.7,46.2,30.19,East,86,4.0,11.0,53,0.00,,,0.00,meteohub,2013-06-19 15:02:00,
2013-06-19 11:07:00,63.9,45.9,30.19,East,82,5.0,11.0,52,0.00,,,0.00,meteohub,2013-06-19 15:07:00,
2013-06-19 11:12:00,64.2,47.3,30.18,ESE,103,8.0,11.0,54,0.00,,,0.00,meteohub,2013-06-19 15:12:00,
2013-06-19 11:17:00,64.8,47.3,30.18,ESE,110,7.0,10.0,53,0.00,,,0.00,meteohub,2013-06-19 15:17:00,
2013-06-19 11:22:00,64.9,47.5,30.18,SE,146,4.0,10.0,53,0.00,,,0.00,meteohub,2013-06-19 15:22:00,
2013-06-19 11:27:00,65.3,46.8,30.18,SSE,160,5.0,15.0,51,0.00,,,0.00,meteohub,2013-06-19 15:27:00,
2013-06-19 11:32:00,65.5,46.9,30.19,NNE,12,1.0,15.0,51,0.00,,,0.00,meteohub,2013-06-19 15:32:00,
2013-06-19 11:37:00,65.7,46.6,30.19,ESE,115,5.0,15.0,50,0.00,,,0.00,meteohub,2013-06-19 15:37:00,
2013-06-19 11:42:00,66.0,47.8,30.19,SE,129,4.0,11.0,52,0.00,,,0.00,meteohub,2013-06-19 15:42:00,
2013-06-19 11:47:00,66.2,47.5,30.19,SE,145,3.0,11.0,51,0.00,,,0.00,meteohub,2013-06-19 15:47:00,
2013-06-19 11:52:00,66.7,48.6,30.19,ENE,65,5.0,10.0,52,0.00,,,0.00,meteohub,2013-06-19 15:52:00,
2013-06-19 11:57:00,66.7,46.4,30.18,SE,129,10.0,10.0,48,0.00,,,0.00,meteohub,2013-06-19 15:57:00,
2013-06-19 12:02:00,66.7,46.4,30.19,NE,50,3.0,12.0,48,0.00,,,0.00,meteohub,2013-06-19 16:02:00,
2013-06-19 12:07:00,66.9,47.1,30.19,ESE,102,4.0,12.0,49,0.00,,,0.00,meteohub,2013-06-19 16:07:00,
2013-06-19 12:12:00,66.9,47.1,30.18,East,83,7.0,12.0,49,0.00,,,0.00,meteohub,2013-06-19 16:12:00,
2013-06-19 12:17:00,66.9,47.1,30.19,ENE,76,5.0,12.0,49,0.00,,,0.00,meteohub,2013-06-19 16:17:00,
2013-06-19 12:22:00,66.9,45.5,30.19,SSW,201,2.0,11.0,46,0.00,,,0.00,meteohub,2013-06-19 16:22:00,
2013-06-19 12:27:00,67.5,46.0,30.19,ESE,122,3.0,11.0,46,0.00,,,0.00,meteohub,2013-06-19 16:27:00,
2013-06-19 12:32:00,67.6,47.8,30.19,ENE,75,6.0,7.0,49,0.00,,,0.00,meteohub,2013-06-19 16:32:00,
2013-06-19 12:37:00,67.8,45.1,30.19,SE,136,6.0,8.0,44,0.00,,,0.00,meteohub,2013-06-19 16:37:00,
2013-06-19 12:42:00,67.6,43.7,30.19,ESE,108,5.0,9.0,42,0.00,,,0.00,meteohub,2013-06-19 16:42:00,
2013-06-19 12:47:00,68.0,46.9,30.19,East,96,5.0,9.0,47,0.00,,,0.00,meteohub,2013-06-19 16:47:00,
2013-06-19 12:52:00,68.2,46.6,30.19,ESE,120,3.0,13.0,46,0.00,,,0.00,meteohub,2013-06-19 16:52:00,
2013-06-19 12:57:00,68.2,46.6,30.19,SE,124,4.0,13.0,46,0.00,,,0.00,meteohub,2013-06-19 16:57:00,
2013-06-19 13:02:00,68.0,45.3,30.19,ESE,110,4.0,9.0,44,0.00,,,0.00,meteohub,2013-06-19 17:02:00,
2013-06-19 13:07:00,68.2,45.5,30.19,ESE,110,2.0,9.0,44,0.00,,,0.00,meteohub,2013-06-19 17:07:00,
2013-06-19 13:12:00,68.4,45.0,30.19,East,89,6.0,9.0,43,0.00,,,0.00,meteohub,2013-06-19 17:12:00,
2013-06-19 13:17:00,68.2,43.5,30.18,SE,124,1.0,9.0,41,0.00,,,0.00,meteohub,2013-06-19 17:17:00,
2013-06-19 13:22:00,68.5,43.3,30.18,ENE,63,4.0,9.0,40,0.00,,,0.00,meteohub,2013-06-19 17:22:00,
2013-06-19 13:27:00,69.1,45.0,30.18,ESE,122,2.0,11.0,42,0.00,,,0.00,meteohub,2013-06-19 17:27:00,
2013-06-19 13:32:00,69.3,44.6,30.18,East,99,9.0,11.0,41,0.00,,,0.00,meteohub,2013-06-19 17:32:00,
2013-06-19 13:37:00,68.7,44.8,30.17,ENE,72,8.0,11.0,42,0.00,,,0.00,meteohub,2013-06-19 17:37:00,
2013-06-19 13:42:00,68.7,44.1,30.17,SE,131,5.0,11.0,41,0.00,,,0.00,meteohub,2013-06-19 17:42:00,
2013-06-19 13:47:00,68.7,44.1,30.17,SSE,167,3.0,11.0,41,0.00,,,0.00,meteohub,2013-06-19 17:47:00,
2013-06-19 13:52:00,69.4,45.3,30.17,SW,215,3.0,10.0,42,0.00,,,0.00,meteohub,2013-06-19 17:52:00,
2013-06-19 13:57:00,70.3,47.5,30.17,SE,136,6.0,9.0,44,0.00,,,0.00,meteohub,2013-06-19 17:57:00,
2013-06-19 14:02:00,70.3,45.0,30.17,SE,130,5.0,11.0,40,0.00,,,0.00,meteohub,2013-06-19 18:02:00,
2013-06-19 14:07:00,70.3,44.2,30.16,SSE,163,6.0,11.0,39,0.00,,,0.00,meteohub,2013-06-19 18:07:00,
2013-06-19 14:12:00,70.3,45.0,30.16,East,97,3.0,11.0,40,0.00,,,0.00,meteohub,2013-06-19 18:12:00,
2013-06-19 14:17:00,70.5,47.5,30.15,ESE,110,8.0,9.0,44,0.00,,,0.00,meteohub,2013-06-19 18:17:00,
2013-06-19 14:22:00,70.5,47.5,30.15,ESE,108,7.0,11.0,44,0.00,,,0.00,meteohub,2013-06-19 18:22:00,
2013-06-19 14:27:00,70.5,45.0,30.15,SSE,151,1.0,11.0,40,0.00,,,0.00,meteohub,2013-06-19 18:27:00,
2013-06-19 14:32:00,71.4,46.6,30.15,SE,128,5.0,11.0,41,0.00,,,0.00,meteohub,2013-06-19 18:32:00,
2013-06-19 14:37:00,71.8,47.5,30.15,East,84,8.0,10.0,42,0.00,,,0.00,meteohub,2013-06-19 18:37:00,
2013-06-19 14:42:00,71.1,46.8,30.15,ENE,73,3.0,8.0,42,0.00,,,0.00,meteohub,2013-06-19 18:42:00,
2013-06-19 14:47:00,71.2,46.4,30.15,ESE,117,7.0,8.0,41,0.00,,,0.00,meteohub,2013-06-19 18:47:00,
2013-06-19 14:52:00,71.4,45.1,30.15,SE,142,7.0,9.0,39,0.00,,,0.00,meteohub,2013-06-19 18:52:00,
2013-06-19 14:57:00,71.6,46.6,30.15,ESE,120,2.0,9.0,41,0.00,,,0.00,meteohub,2013-06-19 18:57:00,
2013-06-19 15:02:00,71.8,45.5,30.15,WSW,238,0.0,9.0,39,0.00,,,0.00,meteohub,2013-06-19 19:02:00,
2013-06-19 15:07:00,72.5,45.5,30.15,SE,130,8.0,9.0,38,0.00,,,0.00,meteohub,2013-06-19 19:07:00,
2013-06-19 15:12:00,72.1,47.8,30.15,ESE,108,3.0,10.0,42,0.00,,,0.00,meteohub,2013-06-19 19:12:00,
2013-06-19 15:18:00,72.1,45.9,30.15,ESE,104,2.0,10.0,39,0.00,,,0.00,meteohub,2013-06-19 19:18:00,
2013-06-19 15:23:00,72.1,45.9,30.14,East,94,5.0,10.0,39,0.00,,,0.00,meteohub,2013-06-19 19:23:00,
2013-06-19 15:28:00,72.0,46.4,30.14,ENE,68,8.0,9.0,40,0.00,,,0.00,meteohub,2013-06-19 19:28:00,
2013-06-19 15:33:00,71.8,48.0,30.14,NE,37,2.0,10.0,43,0.00,,,0.00,meteohub,2013-06-19 19:33:00,
2013-06-19 15:38:00,72.7,46.2,30.14,SSE,155,5.0,10.0,39,0.00,,,0.00,meteohub,2013-06-19 19:38:00,
2013-06-19 15:43:00,73.2,46.0,30.14,SE,134,5.0,10.0,38,0.00,,,0.00,meteohub,2013-06-19 19:43:00,
2013-06-19 15:49:00,72.7,45.7,30.14,East,99,5.0,10.0,38,0.00,,,0.00,meteohub,2013-06-19 19:49:00,
2013-06-19 15:54:00,73.0,48.6,30.14,SSW,211,1.0,10.0,42,0.00,,,0.00,meteohub,2013-06-19 19:54:00,
2013-06-19 15:59:00,73.9,47.5,30.14,East,98,3.0,10.0,39,0.00,,,0.00,meteohub,2013-06-19 19:59:00,
2013-06-19 16:04:00,73.8,48.6,30.14,NNE,23,1.0,9.0,41,0.00,,,0.00,meteohub,2013-06-19 20:04:00,
2013-06-19 16:09:00,73.9,46.0,30.14,SSE,163,3.0,9.0,37,0.00,,,0.00,meteohub,2013-06-19 20:09:00,
2013-06-19 16:14:00,74.5,47.1,30.14,SE,145,4.0,9.0,38,0.00,,,0.00,meteohub,2013-06-19 20:14:00,
2013-06-19 16:20:00,73.9,45.3,30.14,WSW,242,3.0,5.0,36,0.00,,,0.00,meteohub,2013-06-19 20:20:00,
2013-06-19 16:25:00,73.8,46.6,30.13,WNW,297,1.0,8.0,38,0.00,,,0.00,meteohub,2013-06-19 20:25:00,
2013-06-19 16:30:00,74.1,46.9,30.13,SW,214,0.0,8.0,38,0.00,,,0.00,meteohub,2013-06-19 20:30:00,
2013-06-19 16:35:00,74.8,48.2,30.13,East,85,6.0,8.0,39,0.00,,,0.00,meteohub,2013-06-19 20:35:00,
2013-06-19 16:40:00,74.5,47.1,30.13,SSE,166,2.0,6.0,38,0.00,,,0.00,meteohub,2013-06-19 20:40:00,
2013-06-19 16:45:00,74.7,47.3,30.13,ENE,68,3.0,8.0,38,0.00,,,0.00,meteohub,2013-06-19 20:45:00,
2013-06-19 16:51:00,74.3,47.7,30.13,NW,325,4.0,8.0,39,0.00,,,0.00,meteohub,2013-06-19 20:51:00,
2013-06-19 16:56:00,74.7,47.3,30.13,SSW,203,3.0,7.0,38,0.00,,,0.00,meteohub,2013-06-19 20:56:00,
2013-06-19 17:01:00,74.7,46.6,30.13,SSW,208,1.0,18.0,37,0.00,,,0.00,meteohub,2013-06-19 21:01:00,
2013-06-19 17:06:00,74.8,46.8,30.12,ESE,116,1.0,18.0,37,0.00,,,0.00,meteohub,2013-06-19 21:06:00,
2013-06-19 17:11:00,75.4,47.3,30.12,South,169,5.0,11.0,37,0.00,,,0.00,meteohub,2013-06-19 21:11:00,
2013-06-19 17:17:00,75.4,46.6,30.12,SSE,155,10.0,11.0,36,0.00,,,0.00,meteohub,2013-06-19 21:17:00,
2013-06-19 17:22:00,75.4,47.3,30.12,SSE,165,4.0,11.0,37,0.00,,,0.00,meteohub,2013-06-19 21:22:00,
2013-06-19 17:27:00,75.0,46.2,30.12,SSE,147,4.0,11.0,36,0.00,,,0.00,meteohub,2013-06-19 21:27:00,
2013-06-19 17:32:00,75.0,44.8,30.12,SE,143,5.0,11.0,34,0.00,,,0.00,meteohub,2013-06-19 21:32:00,
2013-06-19 17:37:00,75.4,45.9,30.12,ESE,122,4.0,8.0,35,0.00,,,0.00,meteohub,2013-06-19 21:37:00,
2013-06-19 17:42:00,75.6,46.8,30.12,East,89,1.0,8.0,36,0.00,,,0.00,meteohub,2013-06-19 21:42:00,
2013-06-19 17:47:00,75.7,46.2,30.12,SE,139,5.0,5.0,35,0.00,,,0.00,meteohub,2013-06-19 21:47:00,
2013-06-19 17:52:00,75.9,46.2,30.12,SSE,150,4.0,6.0,35,0.00,,,0.00,meteohub,2013-06-19 21:52:00,
2013-06-19 17:57:00,76.3,46.6,30.12,ESE,102,3.0,6.0,35,0.00,,,0.00,meteohub,2013-06-19 21:57:00,
2013-06-19 18:02:00,75.7,46.2,30.12,SSE,160,4.0,7.0,35,0.00,,,0.00,meteohub,2013-06-19 22:02:00,
2013-06-19 18:07:00,75.7,45.3,30.11,SE,125,1.0,7.0,34,0.00,,,0.00,meteohub,2013-06-19 22:07:00,
2013-06-19 18:12:00,76.3,45.9,30.11,WNW,298,0.0,7.0,34,0.00,,,0.00,meteohub,2013-06-19 22:12:00,
2013-06-19 18:17:00,76.5,45.1,30.11,SSW,207,2.0,7.0,33,0.00,,,0.00,meteohub,2013-06-19 22:17:00,
2013-06-19 18:22:00,76.8,46.4,30.10,ESE,110,2.0,4.0,34,0.00,,,0.00,meteohub,2013-06-19 22:22:00,
2013-06-19 18:27:00,76.5,46.0,30.10,West,263,3.0,6.0,34,0.00,,,0.00,meteohub,2013-06-19 22:27:00,
2013-06-19 18:32:00,75.7,46.2,30.10,NNW,346,1.0,6.0,35,0.00,,,0.00,meteohub,2013-06-19 22:32:00,
2013-06-19 18:37:00,75.6,46.8,30.11,SW,226,4.0,6.0,36,0.00,,,0.00,meteohub,2013-06-19 22:37:00,
2013-06-19 18:42:00,75.9,46.2,30.11,SSW,193,4.0,7.0,35,0.00,,,0.00,meteohub,2013-06-19 22:42:00,
2013-06-19 18:47:00,75.7,46.2,30.11,SSE,158,3.0,8.0,35,0.00,,,0.00,meteohub,2013-06-19 22:47:00,
2013-06-19 18:52:00,75.7,46.2,30.11,WSW,248,1.0,8.0,35,0.00,,,0.00,meteohub,2013-06-19 22:52:00,
2013-06-19 18:57:00,76.1,45.7,30.11,SE,128,3.0,8.0,34,0.00,,,0.00,meteohub,2013-06-19 22:57:00,
2013-06-19 19:02:00,75.9,45.5,30.11,SSE,158,1.0,5.0,34,0.00,,,0.00,meteohub,2013-06-19 23:02:00,
2013-06-19 19:07:00,76.3,46.6,30.11,East,97,2.0,4.0,35,0.00,,,0.00,meteohub,2013-06-19 23:07:00,
2013-06-19 19:12:00,76.5,46.0,30.11,WNW,302,1.0,4.0,34,0.00,,,0.00,meteohub,2013-06-19 23:12:00,
2013-06-19 19:17:00,76.8,46.4,30.11,NW,314,1.0,4.0,34,0.00,,,0.00,meteohub,2013-06-19 23:17:00,
2013-06-19 19:22:00,76.3,46.6,30.11,NNE,15,2.0,4.0,35,0.00,,,0.00,meteohub,2013-06-19 23:22:00,
2013-06-19 19:27:00,75.7,46.9,30.11,ENE,63,2.0,4.0,36,0.00,,,0.00,meteohub,2013-06-19 23:27:00,
2013-06-19 19:32:00,75.7,46.9,30.12,NNE,29,2.0,4.0,36,0.00,,,0.00,meteohub,2013-06-19 23:32:00,
2013-06-19 19:37:00,75.9,47.1,30.12,WNW,288,3.0,3.0,36,0.00,,,0.00,meteohub,2013-06-19 23:37:00,
2013-06-19 19:42:00,75.9,47.1,30.12,WSW,250,5.0,5.0,36,0.00,,,0.00,meteohub,2013-06-19 23:42:00,
2013-06-19 19:47:00,75.6,46.8,30.12,WNW,287,3.0,5.0,36,0.00,,,0.00,meteohub,2013-06-19 23:47:00,
2013-06-19 19:52:00,75.6,46.8,30.12,West,276,2.0,5.0,36,0.00,,,0.00,meteohub,2013-06-19 23:52:00,
2013-06-19 19:57:00,75.7,46.9,30.12,WSW,253,2.0,5.0,36,0.00,,,0.00,meteohub,2013-06-19 23:57:00,
2013-06-19 20:02:00,75.9,47.8,30.12,West,279,2.0,4.0,37,0.00,,,0.00,meteohub,2013-06-20 00:02:00,
2013-06-19 20:07:00,75.7,47.7,30.12,WNW,295,3.0,3.0,37,0.00,,,0.00,meteohub,2013-06-20 00:07:00,
2013-06-19 20:12:00,75.4,48.7,30.12,WNW,283,3.0,4.0,39,0.00,,,0.00,meteohub,2013-06-20 00:12:00,
2013-06-19 20:18:00,75.2,47.1,30.12,WSW,248,2.0,4.0,37,0.00,,,0.00,meteohub,2013-06-20 00:18:00,
2013-06-19 20:23:00,75.4,48.7,30.12,West,259,1.0,4.0,39,0.00,,,0.00,meteohub,2013-06-20 00:23:00,
2013-06-19 20:28:00,75.7,49.6,30.12,West,262,0.0,4.0,40,0.00,,,0.00,meteohub,2013-06-20 00:28:00,
2013-06-19 20:33:00,75.9,49.1,30.12,West,262,1.0,3.0,39,0.00,,,0.00,meteohub,2013-06-20 00:33:00,
2013-06-19 20:38:00,75.0,49.1,30.12,WNW,290,4.0,4.0,40,0.00,,,0.00,meteohub,2013-06-20 00:38:00,
2013-06-19 20:43:00,73.8,50.5,30.12,WNW,295,3.0,5.0,44,0.00,,,0.00,meteohub,2013-06-20 00:43:00,
2013-06-19 20:49:00,72.7,51.3,30.12,WNW,283,4.0,6.0,47,0.00,,,0.00,meteohub,2013-06-20 00:49:00,
2013-06-19 20:54:00,72.0,51.3,30.12,West,281,3.0,6.0,48,0.00,,,0.00,meteohub,2013-06-20 00:54:00,
2013-06-19 20:59:00,71.4,51.8,30.12,WNW,293,1.0,6.0,50,0.00,,,0.00,meteohub,2013-06-20 00:59:00,
2013-06-19 21:04:00,71.1,52.0,30.12,WNW,300,1.0,6.0,51,0.00,,,0.00,meteohub,2013-06-20 01:04:00,
2013-06-19 21:09:00,70.5,52.0,30.12,WNW,287,2.0,3.0,52,0.00,,,0.00,meteohub,2013-06-20 01:09:00,
2013-06-19 21:14:00,70.0,52.0,30.12,WNW,303,0.0,3.0,53,0.00,,,0.00,meteohub,2013-06-20 01:14:00,
2013-06-19 21:20:00,69.1,52.2,30.12,WNW,303,0.0,2.0,55,0.00,,,0.00,meteohub,2013-06-20 01:20:00,
2013-06-19 21:25:00,68.4,52.0,30.13,WNW,303,0.0,2.0,56,0.00,,,0.00,meteohub,2013-06-20 01:25:00,
2013-06-19 21:30:00,68.0,52.7,30.13,West,259,2.0,2.0,58,0.00,,,0.00,meteohub,2013-06-20 01:30:00,
2013-06-19 21:35:00,67.5,52.7,30.13,West,259,1.0,1.0,59,0.00,,,0.00,meteohub,2013-06-20 01:35:00,
2013-06-19 21:40:00,66.9,52.5,30.13,WSW,245,2.0,2.0,60,0.00,,,0.00,meteohub,2013-06-20 01:40:00,
2013-06-19 21:45:00,66.0,53.1,30.13,WSW,245,2.0,2.0,63,0.00,,,0.00,meteohub,2013-06-20 01:45:00,
2013-06-19 21:51:00,65.8,52.5,30.13,WSW,245,0.0,2.0,62,0.00,,,0.00,meteohub,2013-06-20 01:51:00,
2013-06-19 21:56:00,65.1,53.1,30.13,WSW,245,0.0,2.0,65,0.00,,,0.00,meteohub,2013-06-20 01:56:00,
2013-06-19 22:01:00,64.2,53.1,30.13,WSW,245,0.0,2.0,67,0.00,,,0.00,meteohub,2013-06-20 02:01:00,
2013-06-19 22:06:00,63.3,52.5,30.14,WSW,245,0.0,2.0,68,0.00,,,0.00,meteohub,2013-06-20 02:06:00,
2013-06-19 22:11:00,62.8,52.9,30.14,WSW,245,0.0,1.0,70,0.00,,,0.00,meteohub,2013-06-20 02:11:00,
2013-06-19 22:16:00,62.2,52.7,30.14,WSW,245,0.0,1.0,71,0.00,,,0.00,meteohub,2013-06-20 02:16:00,
2013-06-19 22:22:00,62.1,52.9,30.14,WSW,245,0.0,1.0,72,0.00,,,0.00,meteohub,2013-06-20 02:22:00,
2013-06-19 22:27:00,61.7,52.5,30.14,WSW,245,0.0,1.0,72,0.00,,,0.00,meteohub,2013-06-20 02:27:00,
2013-06-19 22:32:00,61.2,52.9,30.14,WSW,245,0.0,1.0,74,0.00,,,0.00,meteohub,2013-06-20 02:32:00,
2013-06-19 22:37:00,60.8,52.5,30.14,WSW,245,0.0,0.0,74,0.00,,,0.00,meteohub,2013-06-20 02:37:00,
2013-06-19 22:42:00,60.4,52.9,30.14,WSW,245,0.0,1.0,76,0.00,,,0.00,meteohub,2013-06-20 02:42:00,
2013-06-19 22:47:00,60.1,53.2,30.14,WSW,245,0.0,1.0,78,0.00,,,0.00,meteohub,2013-06-20 02:47:00,
2013-06-19 22:52:00,59.7,53.2,30.14,SE,124,1.0,1.0,79,0.00,,,0.00,meteohub,2013-06-20 02:52:00,
2013-06-19 22:57:00,59.5,53.1,30.14,SE,124,0.0,1.0,79,0.00,,,0.00,meteohub,2013-06-20 02:57:00,
2013-06-19 23:02:00,59.2,52.7,30.14,SE,124,1.0,1.0,79,0.00,,,0.00,meteohub,2013-06-20 03:02:00,
2013-06-19 23:07:00,59.0,53.2,30.14,SE,124,1.0,1.0,81,0.00,,,0.00,meteohub,2013-06-20 03:07:00,
2013-06-19 23:12:00,58.8,53.4,30.14,ESE,107,1.0,1.0,82,0.00,,,0.00,meteohub,2013-06-20 03:12:00,
2013-06-19 23:17:00,58.6,53.2,30.14,ESE,107,0.0,2.0,82,0.00,,,0.00,meteohub,2013-06-20 03:17:00,
2013-06-19 23:30:00,58.1,52.9,30.14,ESE,107,0.0,1.0,83,0.00,,,0.00,meteohub,2013-06-20 03:30:00,
2013-06-19 23:35:00,57.9,52.7,30.14,ESE,107,0.0,1.0,83,0.00,,,0.00,meteohub,2013-06-20 03:35:00,
2013-06-19 23:41:00,57.6,52.5,30.14,ESE,108,0.0,1.0,83,0.00,,,0.00,meteohub,2013-06-20 03:41:00,
2013-06-19 23:46:00,57.4,52.9,30.14,ESE,108,0.0,0.0,85,0.00,,,0.00,meteohub,2013-06-20 03:46:00,
2013-06-19 23:51:00,57.0,52.5,30.14,ESE,107,0.0,0.0,85,0.00,,,0.00,meteohub,2013-06-20 03:51:00,
2013-06-19 23:57:00,56.7,52.5,30.14,ESE,107,1.0,1.0,86,0.00,,,0.00,meteohub,2013-06-20 03:57:00,